Snowfall_Accumulation
0.2 0.2 0.1 0.1 0.3 0.3 0.2 0.1 0.1 0.1 0.1 0.1 0.1 0.1 0.1 0.1 0.1 0.2 0.2 0.2 0.7 0.7 0.6 0.6 0.9 0.8 0.3 0.3 0.2 0.3 0.3 0.3 0.2 0.2 0.3 0.5 0.7 0.8 1.1 1.3 1.4 1.5
0.1 0.1 0.1 0.1 0.1 0.1 0.1 0.1 0.1 0.2 0.2 0.1 0.1 0.1 0.1 0.1 0.1 0.1 0.2 0.2 0.3 0.3 0.2 0.6 0.4 0.8 0.6 0.7 0.5 0.7 0.7 0.6 0.7 0.4 0.5 0.5 0.7 0.7 0.8 0.8 1.1 1.2
0.1 0.1 0.1 0.1 0.1 0.1 0.1 0.1 0.2 0.1 0.1 0.1 0.1 0.1 0.2 0.1 0.2 0.2 0.2 0.3 0.4 0.7 0.4 0.9 0.7 0.8 1.0 0.8 0.4 0.6 0.7 0.8 0.9 0.8 1.0 0.9 0.7 0.8 0.8 0.8 0.9 1.2
0.1 0.0 0.1 0.1 0.1 0.2 0.1 0.1 0.1 0.2 0.1 0.1 0.1 0.1 0.1 0.2 0.3 0.3 0.4 0.5 0.5 0.6 0.7 0.7 0.7 0.8 0.9 0.6 1.4 1.2 1.3 1.0 1.0 0.9 1.0 1.3 1.2 1.0 0.9 0.9 1.1 1.1
0.1 0.1 0.1 0.1 0.1 0.1 0.1 0.1 0.1 0.1 0.2 0.1 0.2 0.1 0.3 0.3 0.4 0.6 0.7 0.7 0.7 0.8 1.6 1.0 0.9 0.9 0.7 0.6 0.8 1.2 0.8 0.8 0.6 0.7 0.9 1.2 1.2 1.2 1.1 1.3 1.4 1.5
0.1 0.1 0.1 0.1 0.1 0.1 0.2 0.2 0.2 0.3 0.8 0.4 0.4 0.2 0.4 0.5 0.6 0.5 0.7 0.8 0.8 0.8 0.9 2.5 1.4 1.1 1.4 0.7 0.7 0.5 0.7 0.6 0.7 0.6 0.6 0.7 0.7 0.8 1.1 1.3 1.6 1.6
0.1 0.1 0.1 0.1 0.1 0.2 0.2 0.3 0.4 0.7 0.4 0.6 1.0 1.1 0.5 0.5 0.5 0.6 0.8 0.9 1.0 1.0 0.9 1.4 0.9 1.2 0.7 0.8 1.0 0.8 0.9 0.8 0.7 0.7 0.7 0.7 0.8 0.7 0.7 1.2 1.3 1.3
0.1 0.1 0.2 0.2 0.2 0.2 0.2 0.4 1.0 0.8 1.0 0.7 1.2 0.4 0.8 0.6 0.7 0.8 0.8 1.0 1.1 1.1 1.0 1.0 1.5 1.3 0.9 1.0 1.0 0.9 0.9 0.8 1.0 1.4 0.9 1.0 0.7 0.8 0.6 0.7 1.1 1.3
0.1 0.2 0.2 0.2 0.2 0.2 0.6 0.4 0.7 0.9 0.9 0.8 0.7 0.7 0.7 1.1 1.1 1.2 1.3 1.3 1.4 1.2 1.2 1.5 1.5 1.5 1.2 1.6 1.9 1.7 1.4 1.1 0.9 0.9 0.9 0.9 0.8 0.7 0.6 0.6 0.9 1.2
0.2 0.2 0.2 0.3 0.7 0.5 0.4 0.4 0.5 0.6 0.7 0.7 1.0 1.1 1.2 1.1 1.2 1.2 1.3 1.3 1.5 1.5 1.9 1.4 1.5 1.2 1.4 1.8 1.8 1.6 1.9 2.2 1.7 1.3 1.2 1.2 1.3 1.0 0.7 0.7 0.8 1.2
0.2 0.2 0.3 0.3 0.3 0.3 0.3 0.4 1.0 0.6 0.7 1.4 1.1 1.5 2.2 1.5 1.4 1.3 1.5 1.7 1.6 1.3 1.1 1.1 1.1 1.1 1.2 1.2 1.2 1.2 1.4 1.5 1.6 1.7 1.7 1.6 1.5 1.5 1.5 1.4 1.3 1.1
0.2 0.2 0.2 0.3 0.3 0.8 0.5 0.6 0.7 0.8 0.9 1.4 2.2 1.3 1.8 1.6 1.9 1.8 1.8 1.7 1.5 1.5 1.4 1.7 1.3 1.3 1.3 1.7 1.2 1.0 1.1 1.2 1.3 1.3 1.3 1.5 1.7 1.8 1.6 1.6 1.7 1.6
0.2 0.3 0.3 0.4 0.5 0.6 0.7 1.0 1.1 1.1 1.2 1.4 1.6 1.9 2.3 2.4 2.5 2.1 2.0 2.0 1.9 1.9 1.7 1.7 1.6 1.4 1.4 1.3 1.3 1.3 1.4 1.4 1.4 1.4 1.2 1.2 1.3 1.4 1.4 1.4 1.6 1.6
0.3 0.4 0.5 0.6 0.9 1.8 1.1 1.2 1.3 1.5 1.7 1.6 2.0 2.3 2.9 3.0 3.2 2.6 2.3 2.1 2.3 2.3 2.0 1.9 2.0 1.8 1.6 1.5 1.5 1.5 1.5 1.8 1.6 1.9 1.9 1.8 1.6 1.4 1.4 1.5 1.6 1.7
0.4 0.5 0.7 1.2 1.0 1.3 1.4 1.5 1.6 2.0 1.8 2.2 2.8 3.3 3.0 3.0 3.2 3.0 2.9 3.1 2.5 2.4 2.7 2.2 2.4 2.2 1.9 2.0 2.1 2.0 2.3 3.1 2.9 3.1 3.1 3.1 2.8 2.5 2.2 2.0 1.8 1.8
0.6 0.9 1.2 1.6 1.6 1.8 1.7 1.6 1.7 2.0 2.6 2.5 3.2 3.3 3.4 2.8 3.1 3.2 3.5 4.8 3.3 3.1 2.9 3.3 2.9 2.5 2.1 2.1 2.8 4.5 5.5 5.7 5.8 5.6 5.3 5.1 4.8 4.2 3.4 2.8 2.4 2.1
1.0 1.3 1.4 1.7 1.9 1.8 1.9 2.1 2.3 2.5 2.8 3.2 3.2 3.3 3.6 4.2 3.8 4.5 4.3 4.3 4.1 4.1 4.4 4.1 3.7 3.0 2.4 3.2 5.5 7.1 8.2 8.7 8.1 6.6 5.3 5.1 4.7 4.3 3.8 3.0 2.5 2.3
1.4 1.5 1.8 1.9 1.9 2.1 2.4 2.8 2.7 3.1 3.2 3.3 4.2 3.9 4.4 4.4 5.4 5.8 4.6 4.3 4.4 4.6 4.7 4.3 4.2 3.0 3.2 5.8 6.7 8.5 11.5 10.5 10.1 8.7 7.0 5.7 4.8 4.3 3.7 3.3 3.0 2.7
1.6 2.0 2.2 2.4 2.5 3.3 2.8 3.0 3.3 3.6 3.8 4.1 4.4 4.5 5.1 5.9 6.5 5.4 5.2 5.2 5.1 5.8 5.1 4.6 4.5 3.3 4.2 6.4 7.7 10.9 12.8 13.4 12.0 9.3 7.3 5.7 4.8 4.3 4.0 3.5 3.3 3.6
2.0 2.5 2.8 2.8 2.9 2.8 3.0 3.4 3.9 4.4 4.5 5.0 5.1 5.3 6.1 6.5 6.1 6.4 6.1 6.5 6.7 6.8 6.3 5.9 5.4 4.4 4.6 8.2 11.2 12.5 14.1 14.9 12.3 10.4 8.5 7.0 5.6 4.8 4.3 4.0 3.8 4.1
2.5 3.1 3.6 3.2 3.1 3.1 3.5 3.9 4.3 4.5 4.6 5.0 5.6 6.1 7.0 7.6 7.4 7.3 7.3 7.5 7.5 8.3 8.0 7.8 6.4 5.3 7.5 11.3 11.8 13.2 13.5 15.7 13.8 12.6 10.6 8.3 6.6 5.6 5.2 4.7 4.1 3.9
3.0 3.4 3.4 3.5 3.4 3.6 4.4 4.7 4.6 4.9 5.7 5.3 6.0 6.3 6.6 6.9 6.2 6.1 6.2 6.2 5.8 6.3 7.2 7.2 5.4 5.1 8.8 11.7 11.7 13.8 15.4 15.0 15.3 12.2 10.1 8.6 7.2 6.0 5.2 4.5 4.0 4.1
3.2 3.6 3.8 3.7 3.9 4.5 4.7 4.9 5.0 4.8 4.7 4.9 5.9 5.4 5.0 4.7 4.8 4.3 4.5 5.1 5.2 5.3 5.7 5.2 4.8 4.9 6.6 11.0 10.9 12.9 16.7 19.1 17.3 13.0 10.6 8.9 7.2 6.2 5.5 5.0 4.4 4.1
3.1 3.7 4.4 4.3 4.6 5.0 4.7 4.2 3.9 4.1 4.5 4.4 5.5 5.4 5.3 4.9 4.6 4.7 4.5 4.7 5.2 5.4 5.3 5.7 5.0 4.3 5.6 9.0 10.3 12.4 14.0 15.2 14.9 14.6 11.4 9.0 7.7 6.3 5.7 5.7 4.7 4.8
3.6 3.7 4.2 4.6 5.0 4.5 4.1 4.3 4.2 4.4 4.4 4.7 5.1 5.2 5.1 4.4 4.5 4.9 4.6 4.7 4.7 4.8 4.7 5.5 5.5 4.7 4.7 7.9 10.1 12.5 13.5 14.7 14.6 14.3 13.2 10.9 9.7 8.9 7.2 5.9 4.9 4.1
3.5 3.8 4.0 4.5 4.8 4.3 3.8 4.1 4.2 4.6 4.4 4.8 4.6 4.3 4.5 4.2 4.3 4.3 4.4 4.5 4.6 5.5 5.8 5.7 5.7 5.2 5.2 5.9 11.0 11.5 13.8 13.3 12.3 12.7 13.3 11.9 10.8 9.8 10.1 8.5 6.3 5.5